Weather in Petrovka

Ukraine / Odesa District     46°54′28″N   30°43′16″E
temp.,
°C
wind,
m/s
gust,
m/s
humid.,
%
clouds,
%
prec.,
mm/h
press.,
hPa
HPBL,
m
27 october, wed
wed2700:00+5se33792 0.0 102842
03:00+5se34867 0.0 102851
06:00+5se458552 0.0 102779
09:00+7se357757 0.0 1027173
12:00+12sw345255 0.0 10271271
15:00+14wsw44462 0.0 10251391
18:00+10sw126226 0.0 102521
21:00+7ssw22770 0.0 102632
28 october, thu
thu2800:00+7nw22698 0.0 102612
03:00+6nnw336539 0.0 102626
06:00+6n33748 0.0 102629
09:00+7nnw24745 0.0 1027117
12:00+13nw335052 0.0 1027644
15:00+15wnw4441100 0.0 10251072
18:00+12wnw335480 0.0 102522
21:00+10nw336331 0.0 102530
29 october, fri
fri2900:00+9nw35665 0.0 102677
03:00+9n347549 0.0 102649
06:00+11n357499 0.0 1026111
09:00+10ne36835 0.0 1027176
12:00+15ne34655 0.0 1027720
15:00+16ene335624 0.0 10261180
18:00+13ene336812 0.0 102734
21:00+11ene34730 0.0 102854
30 october, sat
sat3000:00+9e34760 0.0 102856
03:00+8e35770 0.0 102875
06:00+7e35830 0.0 102980
09:00+8e37800 0.0 1030181
12:00+14ese56490 0.0 10291104
15:00+15ese56422 0.0 10281417
18:00+12e33550 0.0 102829
21:00+9e48630 0.0 1029125
31 october, sun
sun3100:00+8e37740 0.0 1029131
03:00+6ene36830 0.0 102899
05:00+6ene47890 0.0 1027133
08:00+7ene511730 0.0 1027290
11:00+13e67540 0.0 1025789
14:00+15e67450 0.0 10231299
17:00+11ese33590 0.0 102221
20:00+9ese33665 0.0 102237